Jackpot

Texas Poker Multi Jackpot System

Kini Telah hadir Jackpot SUPER ROYAL FLUSH

Kini Telah hadir Jackpot 2000 (khusus table VIP keatas).

Ikutilah global jackpot yang tersedia di system kami, dengan system jackpot terbaru dan pertama di indonesia, anda dapat membeli jackpot dengan harga 100 rupiah saja dan menangkan hadiahnya hingga puluhan juta rupiah.

Jackpot bukanlah suatu keharusan untuk dibeli, namun kami memberikan suatu fitur tambahan untuk member tercinta dari www.mdnpoker.com.

Terdapat tiga pilihan harga jackpot yang bisa anda beli yaitu :100,500,1000 dan 2000(khusus table VIP Keatas) rupiah.

Hadiah dari Multi jackpot system www.mdnpoker.com

  1. full house x 10 harga jackpot yang anda beli.
      (contoh:anda membeli 1000 maka:1000 X10 = 10.000)
  2. four of kind x 250 harga jackpot yang anda beli
      (contoh:anda membeli 1000 maka:1000 X250 = 250.000)
  3. Straight flush x 1200
      (contoh:anda membeli 1000 maka:1000 X1200 = 1.200.000)
  4. Royal flush x 10000 harga jackpot yang anda beli
      (contoh:anda membeli 1000 maka:1000 X10000 = 10.000.000)
  5. SUPER ROYAL FLUSH x 30000 harga jackpot yang anda beli
      (contoh:anda membeli 1000 maka:1000 X30000 = 30.000.000)

Kondisi kartu

  1. full house adalah kondisi kartu dimana kartu anda dan kartu tengah dengan total 7 kartu bisa mendapatkan nilai 5 kartu dengan kombinasi 1 tris(three of kind) dan 1 pair, contoh 3 kartu 10 dan 2 kartu 5
  2. Four of kind adalah kondisi kartu dimana kartu anda dan kartu tengah dengan total 7 kartu bisa mendapatkan nilai 5 kartu dengan kombinasi 4 kartu yang sama jumlah dan 1 kartu apapun juga contoh anda mendapatkan 4 buah kartu angka 3 dan 1 kartu apapun.
  3. Staright flush adalah kondisi kartu dimana kartu anda dan kartu tengah dengan total 7 kartu bisa mendapatkan nilai 5 kartu dengan kombinasi seri / staright dengan kembang yang sama contoh : urutan kartu dari angka 5, 6, 7, 8 , 9 10 dengan kembang yg sama misalnya as hati
  4. Royal flush adalah kondisi kartu dimana kartu anda dan kartu tengah dengan total 7 kartu bisa mendapatkan nilai 5 kartu dengan kombinasi seri / staright dengan kembang yang sama tetapi kartu tersebut haruslah dimulai dari 10. contoh 10, Queen, Jack, King dan aces dengan kembang yang sama
  5. Super Royal flush adalah kondisi kartu dimana Kedua kartu anda digabung dengan 3 kartu pertama meja haruslah royal flush. contoh kartu anda 10,Queen kembang sama dan 3 kartu pertama meja adalah Jack, King dan aces dengan kembang yang sama

Demikian adalah penjelasan dari Multi Jackpot www.mdnpoker.com terima kasih dan selamat bermain salam hoki dari kami

Texas Poker Jackpot Winner

TOP SUPER ROYAL FLUSH
No.TanggalNamaPriceWin
121/05 19:50MASGHENSuper Royal flush3,000,000
221/05 18:30ALVINO50Super Royal flush3,000,000
321/05 16:57ALLIN_B0SSSuper Royal flush6,000,000
421/05 15:53AQHNUGABSPSuper Royal flush3,000,000
521/05 03:49EDAY777Super Royal flush3,000,000
TOP ROYAL FLUSH
No.TanggalNamaPriceWin
122/05 03:30SAKITGIGI7Royal flush500,000
222/05 03:06BAISOTEIRoyal flush1,000,000
322/05 02:52JEMBA121Royal flush5,000,000
422/05 02:40A38B4C3DRoyal flush500,000
522/05 02:37KOKOASIONGRoyal flush2,000,000
TOP STRAIGHT FLUSH
No.TanggalNamaPriceWin
122/05 03:28PERMATA25Straight Flush1,200,000
222/05 03:24MUMU10001Straight Flush600,000
322/05 03:24NG99999Straight Flush240,000
422/05 03:21SONOFPOKERStraight Flush120,000
522/05 03:21LOGOS49Straight Flush240,000
LATEST JACKPOT
No.TanggalNamaPriceWin
122/05 03:30CAPGARPU99Full House1,000
222/05 03:30TEMPEK221Full House5,000
322/05 03:30BANCCET1Full House5,000
422/05 03:30DAPASAMFull House5,000
522/05 03:30M1LL1ON888Full House5,000
622/05 03:30SAKITGIGI7Royal flush500,000
722/05 03:30A702090AFull House1,000
822/05 03:30CAPTAMRICFull House2,000
922/05 03:30F7ACE3ADFour Of A Kind125,000
1022/05 03:30FAH94Full House10,000
1122/05 03:30LIN4_01Full House5,000
1222/05 03:30DWBT12081Full House2,000
1322/05 03:30AAAABIIK16Full House500
1422/05 03:30LENOVO920Full House2,000
1522/05 03:30PUCANG99Full House5,000
1622/05 03:30AGHOY_77Full House2,000
1722/05 03:30A44NDI098Full House2,000
1822/05 03:30FLORIS73Full House1,000
1922/05 03:30CIK4L123Full House2,000
2022/05 03:30P22WFCT3WJFull House2,000
2122/05 03:30B4CT14RFull House5,000
2222/05 03:30SABU2YAFull House2,000
2322/05 03:30LEOLEONELFull House20,000
2422/05 03:30BETAWIXXFull House5,000
2522/05 03:30B3C2A0EEFull House2,000
2622/05 03:30A8590BC7Full House2,000
2722/05 03:30AAC7ED0CFull House5,000
2822/05 03:30QIQI2208Full House5,000
2922/05 03:30EBIRRAJOSFull House10,000
3022/05 03:30LINUS38Full House5,000
3122/05 03:30B33F2BF2Full House2,000
3222/05 03:30M8D50KNNXAFull House10,000
3322/05 03:30ARISTA1901Full House10,000
3422/05 03:30KOPROXXX8Four Of A Kind250,000
3522/05 03:30CASILLAS38Full House10,000
3622/05 03:30MUSRAPFull House10,000
3722/05 03:30FORTE66Full House2,000
3822/05 03:30KINGBULUKFull House5,000
3922/05 03:30SUGAR04Full House1,000
4022/05 03:30MIMO778Full House2,000
4122/05 03:30QUEENCY70Full House5,000
4222/05 03:30L4WU14Four Of A Kind25,000
4322/05 03:30TELEAFull House2,000
4422/05 03:30SUBESNORFull House1,000
4522/05 03:30MANIAC_88Full House5,000
4622/05 03:30SAWO13Four Of A Kind125,000
4722/05 03:30LUKY24Full House5,000
4822/05 03:30GONING08Full House1,000
4922/05 03:30OAJYKANFull House1,000
5022/05 03:30NFS26Full House2,000

Domino Multi Jackpot System

Ikutilah global jackpot yang tersedia di system kami, dengan system jackpot terbaru dan pertama di indonesia, anda dapat membeli jackpot dengan harga 100 rupiah saja dan menangkan hadiahnya hingga puluhan juta rupiah.

Jackpot bukanlah suatu keharusan untuk dibeli, namun kami memberikan suatu fitur tambahan untuk member tercinta dari www.mdnpoker.com.

Terdapat tiga pilihan harga jackpot yang bisa anda beli yaitu :100,500 dan 1000 rupiah.

Hadiah dari Multi jackpot system www.mdnpoker.com

  1. Murni Kecil x 50 harga jackpot yang anda beli.
      (contoh:anda membeli 1000 maka:1000 X 50 = 50.000)
  2. Murni Besar x 50 harga jackpot yang anda beli
      (contoh:anda membeli 1000 maka:1000 X 50 = 50.000)
  3. BALAK x 100 harga jackpot yang anda beli
      (contoh:anda membeli 1000 maka:1000 X 100 = 100.000)
  4. ENAM DEWA x 6666 harga jackpot yang anda beli
      (contoh:anda membeli 1000 maka:1000 X 6666 = 6.666.000)

Demikian adalah penjelasan dari Multi Jackpot www.mdnpoker.com terima kasih dan selamat bermain salam hoki dari kami

Domino Jackpot Winner

TOP ENAM DEWA
No.TanggalNamaPriceWin
121/05 21:53DWBT0750murni enam3,333,000
221/05 19:21KOMISI7murni enam6,666,000
321/05 18:31BIGBRO98murni enam6,666,000
421/05 15:13RHINATEAmurni enam3,333,000
521/05 13:54CEU_ADAH2murni enam666,600
TOP BALAK
No.TanggalNamaPriceWin
122/05 03:21ECI_HOKIbalak100,000
222/05 03:21DFJ0Z7UAXUbalak10,000
322/05 03:20MALDO10balak50,000
422/05 03:19GIPUKbalak50,000
522/05 03:18GELOR4_08balak10,000
LATEST JACKPOT
No.TanggalNamaPriceWin
122/05 03:30AHM210murni besar5,000
222/05 03:29CILOL77murni kecil5,000
322/05 03:28TLAIH0U3WXmurni kecil50,000
422/05 03:26CMD112687murni besar50,000
522/05 03:26EDANELINKmurni kecil25,000
622/05 03:22JUARA1414murni kecil50,000
722/05 03:22ARDHIA89murni besar5,000
822/05 03:22IZAR0709murni kecil25,000
922/05 03:21ECI_HOKIbalak100,000
1022/05 03:21DFJ0Z7UAXUbalak10,000
1122/05 03:21DAMDAMBUTmurni kecil50,000
1222/05 03:20TAKEDOWN99murni besar25,000
1322/05 03:20KNZPKRRRmurni kecil50,000
1422/05 03:20BEBEC98murni besar50,000
1522/05 03:20MALDO10balak50,000
1622/05 03:20PERAJACAGEmurni kecil25,000
1722/05 03:19GIPUKbalak50,000
1822/05 03:18BBUJ4NGGmurni kecil50,000
1922/05 03:18EDANELINKmurni kecil25,000
2022/05 03:18GELOR4_08balak10,000
2122/05 03:17HAYOLUHmurni kecil5,000
2222/05 03:17OOXOOmurni kecil50,000
2322/05 03:14WITH_BLACKmurni besar25,000
2422/05 03:14AMPUN789murni kecil5,000
2522/05 03:14UNDER101balak10,000
2622/05 03:13BOSROYAL88murni besar50,000
2722/05 03:13R_DEVILSmurni kecil25,000
2822/05 03:12STIRJUGAmurni kecil50,000
2922/05 03:12X6X6X6balak50,000
3022/05 03:11PITAK_9murni besar50,000
3122/05 03:11DWTGOKILmurni besar5,000
3222/05 03:11TAUFAN_97murni kecil50,000
3322/05 03:11THOM420murni kecil50,000
3422/05 03:10F4D1L78balak100,000
3522/05 03:10PTSCINTAbalak50,000
3622/05 03:10UWING29lucky9925,000
3722/05 03:09MATH4DORbalak10,000
3822/05 03:07KATUNGO17murni besar25,000
3922/05 03:07CLAUDE02balak10,000
4022/05 03:06N4G4EM4Smurni besar50,000
4122/05 03:06LB994049balak50,000
4222/05 03:04UNDER101murni kecil5,000
4322/05 03:04EDANELINKmurni kecil25,000
4422/05 03:04JAVMOMmurni kecil50,000
4522/05 03:03T4DARUSANmurni kecil50,000
4622/05 03:02BYZADmurni kecil50,000
4722/05 03:01TQ5HEOGAO5murni besar50,000
4822/05 03:01DIKAFADILAmurni kecil5,000
4922/05 02:59JAGAU9murni kecil25,000
5022/05 02:58UTUHLAKIbalak100,000

Ceme Multi Jackpot System

Jackpot dilihat dari gabungan kartu pemain dengan kartu bandar. Bandar harus membeli jackpot sebanyak jumlah player yang sedang duduk. Sebagai contoh bila terdapat 3 pemain duduk bermain, dan bandar memutuskan untuk membeli jackpot Rp 1.000, maka pada periode tersebut bandar akan membeli jackpot sebanyak 3xRp1.000 = Rp3.000.

Jackpot bukanlah suatu keharusan untuk dibeli, namun kami memberikan suatu fitur tambahan untuk member tercinta dari www.mdnpoker.com.

Terdapat tiga pilihan harga jackpot yang bisa anda beli yaitu :100,500 dan 1000 rupiah.

Hadiah dari Multi jackpot system www.mdnpoker.com

  1. Murni Kecil x 50 harga jackpot yang anda beli.
      (contoh:anda membeli 1000 maka:1000 X 50 = 50.000)
  2. Murni Besar x 50 harga jackpot yang anda beli
      (contoh:anda membeli 1000 maka:1000 X 50 = 50.000)
  3. BALAK x 200 harga jackpot yang anda beli
      (contoh:anda membeli 1000 maka:1000 X 200 = 200.000)
  4. ENAM DEWA x 6666 harga jackpot yang anda beli
      (contoh:anda membeli 1000 maka:1000 X 6666 = 6.666.000)

Demikian adalah penjelasan dari Multi Jackpot www.mdnpoker.com terima kasih dan selamat bermain salam hoki dari kami

Ceme Jackpot Winner

TOP ENAM DEWA
No.TanggalNamaPriceWin
122/05 03:28W4Y212murni enam666,600
222/05 03:25GENJIK89murni enam6,666,000
322/05 03:25BOHAPOKmurni enam6,666,000
422/05 03:19BURHAN211murni enam666,600
522/05 03:19PELER45murni enam6,666,000
TOP BALAK
No.TanggalNamaPriceWin
122/05 03:30DEDYPLN34balak200,000
222/05 03:305454LIbalak20,000
322/05 03:30SADARWINbalak200,000
422/05 03:29MPEKMBUSbalak20,000
522/05 03:29JPNDAR03balak20,000
LATEST JACKPOT
No.TanggalNamaPriceWin
122/05 03:30FASTABIQmurni kecil50,000
222/05 03:30ZALLUCHUmurni besar50,000
322/05 03:30ADZUN111murni besar50,000
422/05 03:30DEDYPLN34balak200,000
522/05 03:305454LIbalak20,000
622/05 03:30SADARWINbalak200,000
722/05 03:30DWBTANEU11murni kecil50,000
822/05 03:29TDHMXS911Tmurni besar50,000
922/05 03:29DEDYPLN34murni kecil50,000
1022/05 03:29MPEKMBUSbalak20,000
1122/05 03:29JPNDAR03balak20,000
1222/05 03:293NI3murni kecil25,000
1322/05 03:29DOMHI88murni kecil50,000
1422/05 03:29LHZD0C7QI8murni kecil50,000
1522/05 03:29RAHM4D_88balak200,000
1622/05 03:29RIANS889murni kecil5,000
1722/05 03:29MAC4NQQmurni besar50,000
1822/05 03:29ARMEKAmurni kecil50,000
1922/05 03:29MENUK79murni kecil5,000
2022/05 03:29MALEHOY191murni kecil5,000
2122/05 03:28W4Y212murni enam666,600
2222/05 03:28JABRIG_45murni besar25,000
2322/05 03:28IDK895950murni besar25,000
2422/05 03:28BOBOOOY06murni kecil50,000
2522/05 03:28B39SAEMARSU169murni kecil50,000
2622/05 03:28TAMPUBOLL8murni kecil50,000
2722/05 03:28SWATPOKERmurni kecil25,000
2822/05 03:28PABBURUEmurni kecil25,000
2922/05 03:28YA_KIN_JPbalak200,000
3022/05 03:28CPLX17KOImurni kecil50,000
3122/05 03:28PUNGKI01murni kecil25,000
3222/05 03:27KULIRIKbalak200,000
3322/05 03:27CENGGO46balak200,000
3422/05 03:27BPOFFICIALmurni besar50,000
3522/05 03:27ISW1234murni besar50,000
3622/05 03:27AJI63murni kecil50,000
3722/05 03:27KAKARANAHmurni kecil25,000
3822/05 03:27RAHM4D_88murni kecil50,000
3922/05 03:27AUSE18murni besar25,000
4022/05 03:26BSAK18balak200,000
4122/05 03:26HUNTU_balak200,000
4222/05 03:26EMANGTUNGSmurni besar50,000
4322/05 03:26CAKBEN12murni kecil50,000
4422/05 03:26SWATPOKERmurni besar25,000
4522/05 03:26KOLKOL16balak200,000
4622/05 03:26KATRO30murni kecil50,000
4722/05 03:26AOTONG76murni kecil50,000
4822/05 03:26KATRO30balak200,000
4922/05 03:26GUYS159murni besar25,000
5022/05 03:26MELJSmurni besar25,000